GFSCGP_925_temp_162.txt.gz
Temp
15 13 12 15 14 15 15 15 15 16 16 16 14 14 14 15 14 15 15 14 15 16 12 11 11 12 13 14 14 14 14 14 14 16 16 16 16 14 15 15 15 16 15 15
13 12 13 15 15 15 16 16 16 16 16 17 15 14 14 15 16 15 16 15 15 11 10 10 10 10 11 11 11 11 11 12 13 13 13 13 13 12 13 13 13 13 13 13
12 14 14 14 14 14 15 15 15 16 16 16 15 13 14 15 15 15 15 16 15 12 10 8 8 8 9 9 9 10 10 11 12 13 13 12 12 11 11 11 11 11 11 11
12 14 14 14 14 14 14 15 16 15 14 13 14 13 13 16 17 16 15 12 11 10 9 8 7 7 7 7 9 9 9 10 11 12 13 13 12 10 8 9 9 9 9 10
12 14 13 14 15 15 15 16 15 15 14 13 13 12 13 14 16 17 12 11 10 9 8 7 6 7 7 8 8 8 9 9 9 10 11 11 10 9 9 8 8 8 8 8
13 13 14 14 15 15 15 14 14 13 12 9 12 12 12 15 16 15 12 11 9 8 7 6 6 7 7 7 7 7 8 7 8 9 9 9 9 8 8 7 8 7 7 6
12 13 13 14 14 15 15 13 10 8 11 10 12 12 13 15 17 15 13 10 9 8 6 5 5 6 6 6 6 6 6 6 7 7 8 7 7 7 6 6 5 5 5 4
11 12 12 13 14 13 13 13 10 10 10 12 12 12 14 15 15 15 13 10 8 7 6 5 5 5 6 6 6 6 5 5 6 6 6 6 5 5 5 4 3 3 3 2
10 12 12 12 13 14 13 12 13 11 5 9 11 12 14 15 13 11 10 9 8 7 6 5 5 5 5 5 5 5 5 4 4 4 4 4 4 4 3 2 2 2 1 1
12 10 12 12 14 13 13 13 12 11 8 9 11 12 13 15 14 11 9 8 8 7 6 5 5 5 5 5 5 4 4 4 4 3 3 2 2 2 2 2 1 1 1 0
13 12 11 12 12 12 12 12 13 12 9 11 10 12 12 15 13 11 10 9 8 7 6 5 5 5 5 5 4 4 3 3 2 2 2 2 1 1 1 0 -0 -0 -0 -1
13 11 11 11 11 12 14 13 12 10 10 8 10 11 14 14 13 12 11 10 9 8 6 5 5 5 5 4 4 3 2 2 2 1 1 1 0 -0 -0 -1 -1 -1 -1 -1
11 9 10 10 10 11 11 12 13 12 10 11 10 11 11 11 11 12 11 11 9 8 7 5 4 4 4 4 3 3 2 1 1 0 -0 -1 -1 -1 -2 -2 -2 -2 -2 -2
13 9 11 12 12 11 11 11 11 12 9 11 12 12 13 12 13 13 12 11 10 8 7 5 3 3 3 4 3 2 1 1 0 -1 -1 -2 -2 -3 -3 -3 -3 -3 -3 -3
10 9 10 12 11 11 11 12 12 11 12 11 12 11 12 13 12 12 11 11 11 9 8 6 5 4 3 3 3 2 1 0 -1 -1 -2 -3 -3 -3 -4 -4 -4 -4 -4 -4
10 8 9 8 11 12 11 10 10 10 10 10 11 11 12 12 11 10 10 10 10 9 8 7 6 6 4 3 2 1 0 -1 -1 -2 -3 -4 -4 -4 -5 -5 -5 -5 -5 -6
9 7 6 5 7 8 6 7 9 10 10 11 10 11 12 11 10 10 9 9 9 8 8 7 6 7 7 5 3 0 -1 -1 -2 -3 -4 -4 -5 -5 -5 -6 -6 -6 -6 -6
8 7 4 3 3 5 9 9 11 11 11 10 11 11 11 10 10 9 8 8 8 7 6 4 3 5 5 4 1 -1 -1 -3 -3 -4 -5 -5 -6 -6 -6 -6 -7 -7 -7 -8
9 7 4 4 -2 6 8 9 9 9 10 10 10 10 9 9 8 7 7 7 6 4 2 0 0 1 1 1 -1 -2 -3 -4 -4 -5 -6 -6 -7 -7 -7 -7 -7 -8 -8 -8
8 7 6 -1 3 4 7 9 9 10 9 10 9 9 9 8 8 7 9 5 2 0 -1 -1 -2 -1 -1 -3 -3 -3 -5 -5 -6 -7 -7 -7 -8 -8 -8 -8 -8 -8 -8 -9
2 2 4 -1 2 3 6 7 9 7 10 9 8 8 7 7 7 6 3 1 1 -1 -3 -4 -4 -4 -4 -5 -4 -6 -6 -7 -7 -7 -8 -8 -8 -8 -8 -8 -8 -9 -9 -9
6 4 4 4 2 7 5 7 9 11 8 8 7 8 7 5 5 3 0 0 -3 -4 -6 -6 -6 -6 -6 -5 -5 -7 -8 -8 -8 -8 -9 -9 -9 -9 -9 -9 -9 -9 -10 -10
6 6 4 6 7 7 4 8 7 6 7 8 7 6 5 5 5 4 1 -3 -4 -5 -7 -7 -7 -8 -8 -7 -6 -7 -8 -8 -9 -9 -9 -10 -9 -9 -10 -10 -10 -10 -10 -11
3 1 4 4 5 5 6 5 5 5 5 5 4 5 3 4 2 1 -1 -4 -6 -7 -8 -8 -8 -9 -9 -8 -8 -7 -9 -9 -10 -10 -10 -10 -10 -10 -10 -10 -11 -11 -11 -12
3 3 2 1 4 1 3 4 5 4 3 3 3 3 2 1 0 -1 -2 -5 -6 -8 -9 -9 -9 -10 -10 -10 -9 -9 -10 -10 -10 -10 -11 -11 -11 -11 -11 -11 -11 -11 -12 -12
1 3 6 6 3 4 7 6 2 2 2 2 1 -2 -3 -2 -2 -5 -5 -5 -8 -10 -10 -11 -10 -11 -11 -11 -10 -11 -10 -10 -10 -11 -11 -11 -11 -12 -12 -12 -13 -13 -12 -13

GFSCGP_925_temp_165.txt.gz
Temp
14 12 12 15 15 15 14 14 15 15 15 16 14 13 14 14 14 13 13 14 13 13 10 11 11 12 12 13 14 14 14 14 15 15 15 14 13 13 14 13 14 14 14 15
12 11 13 14 14 14 15 15 15 16 16 15 15 13 14 14 14 14 15 13 13 10 9 9 9 10 11 11 11 12 13 13 13 13 12 13 12 12 12 12 13 12 14 13
11 13 13 13 13 13 14 14 15 15 15 15 14 14 13 14 14 14 14 14 13 11 9 7 8 8 9 9 10 10 11 11 12 13 13 13 12 11 11 11 12 11 11 12
12 13 13 12 13 13 13 14 15 15 14 13 14 11 14 15 15 16 14 13 12 9 8 7 7 7 8 9 9 9 9 10 11 12 12 12 12 10 9 10 10 10 10 10
11 12 13 12 13 14 14 14 14 14 13 13 12 12 12 13 15 16 13 11 9 8 7 6 7 7 7 7 8 8 8 9 10 11 12 12 12 10 9 9 9 8 8 9
12 13 13 13 14 14 14 13 12 11 11 9 11 12 11 14 15 14 12 9 8 7 6 6 6 6 6 6 7 8 9 9 9 10 10 10 9 8 8 8 7 7 7 7
12 12 13 13 13 14 14 12 8 9 11 9 11 11 11 14 15 15 12 9 8 7 5 5 5 5 6 6 7 7 8 8 7 8 8 8 8 8 7 6 6 6 6 5
11 11 12 12 13 13 12 12 9 10 10 10 10 11 13 14 12 12 11 8 7 6 6 5 6 6 6 6 6 7 7 6 6 6 6 6 6 6 6 5 5 4 4 4
8 11 11 12 13 13 12 13 12 10 4 8 10 11 13 14 11 10 9 8 7 7 6 5 6 6 6 6 6 6 6 5 5 5 5 5 5 5 4 3 3 3 3 2
11 10 11 12 13 13 12 12 12 8 8 8 10 11 13 15 14 9 9 8 8 8 7 6 6 6 6 6 6 5 5 5 4 4 4 3 3 3 3 3 2 2 2 1
11 11 11 11 11 12 12 12 13 11 9 10 9 12 11 13 13 10 9 9 8 8 7 6 6 7 7 6 6 5 5 4 3 3 2 2 2 2 1 1 1 1 0 0
12 10 11 12 10 10 13 12 12 11 10 8 9 11 12 11 11 10 10 10 9 8 7 6 6 7 6 6 5 5 4 3 3 2 1 1 0 0 0 -0 -1 -1 -1 -1
11 9 9 10 10 10 12 12 12 11 10 10 10 11 10 11 11 11 11 11 11 10 8 6 5 5 5 5 5 4 4 3 2 1 1 0 -0 -1 -1 -1 -2 -2 -2 -2
12 9 9 11 12 10 11 11 11 13 11 11 11 12 12 11 11 11 11 11 10 9 8 6 5 5 6 5 5 4 3 3 1 0 -0 -0 -1 -2 -2 -2 -3 -3 -3 -3
10 10 9 11 11 11 11 11 11 11 11 11 11 11 12 13 12 12 12 11 10 9 8 6 5 5 6 6 6 4 3 2 1 -0 -1 -1 -2 -2 -3 -3 -4 -4 -4 -4
10 9 9 8 9 10 11 10 10 10 11 10 11 11 12 12 12 11 11 10 9 8 8 7 7 6 5 5 5 4 3 1 0 -1 -1 -2 -3 -3 -4 -4 -4 -5 -5 -5
9 7 8 8 6 8 8 6 9 9 10 12 11 13 12 11 11 10 10 9 9 8 8 7 6 5 6 6 5 3 2 1 -1 -1 -2 -3 -4 -4 -5 -5 -6 -6 -6 -6
7 7 6 5 4 7 9 8 10 10 10 10 10 11 11 12 11 9 9 9 8 7 7 5 4 4 4 5 3 2 0 -0 -2 -3 -3 -4 -5 -5 -6 -6 -6 -6 -7 -7
8 6 4 4 -2 6 8 8 8 9 10 10 10 11 10 9 9 8 7 6 7 7 6 4 3 3 3 2 1 0 -2 -2 -3 -4 -4 -5 -5 -6 -6 -7 -7 -7 -7 -8
6 7 5 -5 2 4 7 9 8 9 9 10 9 9 8 6 8 10 9 6 4 4 3 2 1 1 0 -0 -1 -2 -4 -4 -4 -4 -5 -6 -6 -6 -7 -7 -7 -8 -8 -8
1 0 5 -3 -0 3 6 7 8 7 9 10 7 8 6 7 8 7 6 6 5 4 1 -0 -1 -1 -1 -2 -3 -4 -5 -5 -4 -5 -5 -6 -7 -7 -7 -7 -8 -8 -8 -9
5 4 0 -2 1 7 5 6 9 10 8 10 7 6 6 5 6 3 3 3 2 -0 -3 -3 -3 -3 -3 -4 -4 -5 -6 -5 -5 -6 -7 -7 -7 -8 -8 -8 -8 -9 -9 -9
6 6 5 8 8 8 3 8 7 6 8 6 7 7 6 5 4 3 2 -0 -0 -0 -2 -3 -4 -5 -6 -5 -5 -6 -6 -7 -7 -8 -8 -8 -8 -8 -9 -9 -9 -9 -10 -10
3 0 4 5 7 5 5 4 4 4 5 5 5 5 3 5 3 3 1 -1 -3 -2 -3 -4 -6 -8 -8 -7 -6 -5 -7 -8 -8 -8 -9 -9 -9 -9 -9 -9 -9 -10 -10 -11
2 2 1 2 3 3 3 4 6 4 3 5 4 4 3 2 2 0 -0 -2 -3 -3 -4 -5 -7 -8 -7 -8 -7 -7 -7 -8 -9 -9 -10 -10 -10 -10 -10 -10 -10 -10 -10 -10
-0 2 5 5 6 5 8 2 3 2 3 3 3 2 -1 -2 0 -3 -3 -2 -2 -5 -6 -8 -8 -8 -8 -9 -9 -9 -9 -9 -9 -10 -11 -11 -10 -11 -11 -11 -12 -12 -11 -12

GFSCGP_925_temp_168.txt.gz
Temp
13 13 13 14 14 14 12 14 14 14 15 15 13 12 13 14 14 13 12 12 12 12 10 10 10 11 12 13 14 14 15 15 15 15 14 13 12 11 12 12 12 13 14 14
12 11 13 14 14 14 14 14 14 15 15 14 13 12 13 13 13 14 14 12 12 10 8 9 9 10 11 11 12 12 13 13 13 13 12 12 11 12 11 12 12 12 13 13
12 14 12 13 13 13 13 13 14 14 14 14 12 12 13 14 13 14 13 14 12 11 9 7 8 8 9 10 10 10 11 11 12 12 12 12 12 11 11 11 11 11 11 12
12 13 12 12 12 12 12 13 14 14 13 13 12 11 12 14 13 14 14 12 11 10 7 6 7 7 8 8 9 9 10 11 11 11 11 11 12 11 10 10 10 10 11 11
11 11 11 12 13 13 13 12 13 14 12 12 12 11 11 13 14 14 14 12 10 8 7 6 6 7 7 8 8 9 9 10 10 11 11 11 11 10 9 8 9 9 9 9
11 12 12 12 13 13 12 12 11 10 11 9 11 11 11 13 15 15 12 10 8 6 5 5 6 6 6 7 8 8 8 8 8 9 9 9 9 8 8 8 8 8 8 8
11 12 12 13 12 13 13 12 8 9 10 9 10 10 10 12 13 14 13 8 6 6 5 4 5 5 6 7 7 7 7 7 7 8 8 8 8 7 7 6 6 6 6 6
9 9 11 12 12 12 11 12 9 11 10 10 10 10 13 13 10 9 10 7 6 6 5 5 5 6 6 6 6 6 6 6 7 7 7 6 6 6 6 5 5 5 5 4
9 10 11 12 12 13 12 12 12 9 3 8 10 10 12 12 10 8 8 7 7 6 5 5 6 6 6 6 6 6 6 6 6 6 5 5 5 5 5 4 4 4 3 2
10 10 10 11 12 12 12 11 11 7 8 7 10 10 12 14 13 9 8 8 8 7 7 6 6 6 7 7 6 6 5 5 5 5 4 4 4 3 3 3 3 2 2 1
10 11 10 11 11 12 12 11 12 10 8 9 8 11 10 12 10 10 8 8 8 7 7 6 6 7 7 7 6 5 5 5 4 4 4 3 3 3 2 2 1 1 0 0
10 10 8 12 10 10 12 12 11 9 10 7 8 10 10 11 11 9 8 9 9 8 8 6 7 7 7 6 6 5 5 4 4 3 3 2 2 1 1 1 0 0 -0 -1
10 8 9 9 11 10 11 12 11 10 9 9 9 10 10 10 10 10 9 9 9 11 10 7 7 7 7 7 6 6 5 4 3 3 2 2 1 1 0 -0 -1 -1 -2 -2
11 9 10 9 11 10 10 11 12 12 12 11 11 12 12 11 11 11 11 10 11 10 9 7 6 7 8 8 7 6 5 4 3 2 2 1 0 -0 -1 -2 -2 -2 -3 -3
11 8 9 10 11 10 10 11 10 12 12 12 11 10 11 12 11 11 11 11 11 10 9 8 7 7 8 8 7 6 5 4 3 2 1 0 -1 -2 -2 -3 -3 -3 -4 -4
10 9 9 7 9 9 10 9 10 11 11 11 11 9 11 12 11 11 13 12 9 8 8 7 6 6 7 6 6 5 4 3 2 1 0 -1 -2 -2 -3 -4 -4 -4 -4 -5
9 8 8 9 6 9 8 7 9 9 8 10 10 12 12 12 12 13 13 9 8 8 8 7 6 6 6 6 6 5 4 3 1 0 -1 -1 -2 -3 -4 -4 -5 -5 -5 -6
8 9 6 4 3 8 10 8 10 10 9 10 10 11 11 12 12 10 9 9 8 8 7 6 6 6 6 6 6 5 3 2 0 -1 -1 -2 -3 -4 -5 -5 -5 -6 -6 -6
7 6 3 4 -0 6 8 8 8 9 11 10 10 11 10 9 9 8 7 7 8 7 7 7 7 5 5 4 4 2 1 -1 -2 -2 -3 -3 -4 -5 -5 -6 -6 -6 -6 -7
6 6 5 -7 2 5 8 9 7 9 10 10 10 10 8 7 8 11 7 6 5 7 7 6 5 5 4 4 3 1 -1 -2 -3 -3 -3 -3 -4 -5 -5 -6 -6 -7 -7 -7
7 6 8 -4 0 4 6 6 8 8 10 10 7 8 5 7 9 8 6 5 6 6 5 5 4 4 4 2 1 -1 -2 -3 -2 -3 -3 -4 -5 -5 -6 -6 -7 -7 -8 -9
8 8 7 2 3 7 5 6 10 10 9 9 7 6 5 5 5 7 4 5 3 2 2 2 0 1 0 -0 -1 -3 -4 -3 -4 -4 -5 -6 -6 -6 -7 -7 -8 -8 -8 -9
7 6 5 7 8 8 3 8 6 6 8 8 8 7 5 5 4 3 3 2 2 3 2 1 -0 -0 -1 -1 -2 -3 -3 -4 -5 -6 -6 -7 -7 -7 -7 -8 -8 -9 -9 -9
3 -0 4 6 4 6 6 5 5 5 7 7 6 5 4 6 4 3 2 1 -0 3 1 1 -2 -4 -3 -3 -4 -4 -4 -5 -6 -7 -7 -8 -8 -8 -8 -9 -9 -9 -9 -10
2 2 -0 3 1 2 3 4 5 5 3 4 4 4 4 3 2 1 1 -0 -1 0 -0 -1 -4 -4 -3 -4 -5 -6 -5 -6 -7 -8 -8 -9 -9 -9 -9 -9 -9 -9 -9 -9
-1 1 5 6 3 5 8 3 2 3 4 3 2 0 -2 -1 0 -2 -1 1 1 -1 -2 -4 -4 -4 -4 -5 -6 -7 -7 -7 -8 -9 -10 -10 -10 -10 -10 -10 -10 -10 -10 -11

GFSCGP_925_temp_174.txt.gz
Temp
15 17 18 18 19 18 19 19 20 17 16 17 19 18 19 20 18 20 20 20 20 20 19 14 12 11 11 11 11 13 13 15 15 14 14 14 13 12 11 10 11 11 12 13
15 16 16 16 16 17 17 18 18 16 16 16 17 18 20 20 19 20 21 21 21 20 17 13 12 11 11 10 10 11 12 13 13 13 12 13 12 11 11 11 11 11 11 12
16 15 15 16 15 16 16 17 17 18 16 16 17 20 19 19 17 18 18 20 21 21 19 15 12 11 10 10 9 10 11 11 12 12 11 11 11 10 10 9 10 10 11 11
15 13 14 15 16 17 16 16 16 16 17 19 16 21 20 19 19 18 19 18 19 19 19 16 12 11 10 8 8 9 11 11 11 11 11 11 12 12 8 8 9 9 9 9
14 12 13 14 16 15 16 15 16 15 16 16 16 17 20 16 19 18 17 16 15 14 16 14 12 10 8 7 8 9 10 10 11 11 10 10 10 9 8 7 7 8 8 8
12 12 13 15 13 16 14 14 14 14 15 15 17 17 20 20 19 18 18 16 12 11 12 12 9 7 7 6 7 8 9 9 10 10 10 10 9 8 7 7 6 6 6 6
12 12 12 13 13 13 14 15 14 14 14 16 13 14 20 18 17 16 16 15 12 11 11 10 9 9 8 7 7 6 7 8 9 9 9 9 8 8 7 6 6 5 4 4
13 12 13 13 15 14 13 16 17 16 16 16 12 15 19 15 13 12 11 12 11 11 10 10 10 9 8 7 6 6 7 8 8 8 8 8 8 7 7 6 5 4 3 4
13 13 11 12 13 15 14 14 14 12 8 14 17 15 17 13 13 12 11 11 11 10 10 10 9 9 8 7 6 6 6 7 7 7 7 7 7 6 6 6 5 4 4 4
13 12 11 11 13 13 15 14 13 13 14 15 15 15 19 16 15 13 12 12 11 11 10 10 9 9 8 7 6 6 7 6 6 6 6 6 6 5 5 4 3 2 2 2
13 14 11 12 13 14 13 14 13 15 13 16 16 18 16 15 15 15 14 13 13 12 11 11 10 8 7 6 6 6 5 5 6 6 6 5 5 4 3 3 2 2 1 1
12 12 12 13 11 11 15 15 15 16 12 12 13 17 14 14 14 13 14 13 13 13 13 12 10 9 8 7 6 6 5 6 6 5 5 4 4 3 2 2 1 1 1 1
12 12 10 11 12 11 13 13 15 13 13 12 14 17 13 13 13 13 14 14 13 13 12 12 11 10 10 9 7 6 5 6 6 5 4 4 3 2 2 1 1 1 0 -0
13 12 13 15 15 14 13 14 14 15 13 15 15 17 16 14 14 13 13 14 14 13 13 14 13 12 11 10 8 7 6 6 5 4 3 3 2 2 1 1 0 -0 -1 -1
14 11 12 12 12 12 14 14 14 14 14 14 16 15 17 16 15 15 15 14 13 14 13 13 13 12 11 9 8 7 6 5 4 3 2 2 2 1 1 -0 -1 -2 -2 -3
12 10 11 9 10 11 12 13 14 14 15 15 15 15 17 17 16 15 14 14 13 14 13 13 12 11 10 10 8 7 6 6 6 4 2 2 1 0 -1 -2 -2 -3 -3 -3
12 9 10 11 9 11 11 11 12 13 14 15 14 16 16 14 14 15 15 14 14 14 13 13 12 10 10 9 9 7 8 7 5 3 2 2 1 -0 -1 -2 -3 -4 -4 -5
11 10 9 8 9 11 12 9 13 13 14 14 15 16 16 16 16 15 16 15 14 14 13 11 10 9 9 9 8 8 8 7 6 4 2 1 0 -1 -2 -3 -4 -5 -5 -5
13 11 7 9 10 12 13 10 10 11 13 14 14 14 15 15 14 14 14 14 14 14 13 12 11 10 9 9 9 8 7 6 5 3 2 1 0 -1 -2 -3 -5 -5 -6 -6
10 12 12 5 10 11 12 10 10 13 12 13 13 14 14 12 13 15 15 12 12 11 10 9 9 9 9 8 7 7 6 5 5 4 3 2 -0 -1 -2 -3 -5 -6 -6 -6
9 8 10 8 10 10 11 8 11 11 14 11 11 13 13 11 15 13 10 9 8 8 8 8 8 9 10 8 7 7 5 5 6 4 2 1 -0 -2 -2 -3 -5 -6 -7 -7
10 10 10 7 10 11 8 8 12 14 10 10 9 10 10 11 9 9 9 8 6 5 5 7 6 7 7 8 7 5 3 6 3 2 0 -1 -2 -3 -4 -4 -6 -7 -7 -8
10 12 10 12 12 9 9 11 11 8 11 10 10 8 8 7 8 9 9 7 5 5 4 5 6 6 6 6 5 3 5 4 2 0 -1 -2 -4 -4 -5 -5 -7 -8 -8 -8
7 4 9 9 8 8 8 7 6 8 9 8 8 8 7 8 7 7 6 6 5 4 4 6 5 4 5 6 4 5 3 1 -0 -1 -3 -4 -5 -6 -6 -7 -8 -8 -8 -8
7 6 6 7 5 4 6 6 8 7 6 6 6 7 7 7 7 7 6 3 3 5 6 6 5 5 7 4 5 3 1 -1 -2 -3 -4 -6 -7 -8 -8 -8 -8 -8 -8 -7
4 6 10 11 8 8 10 8 6 5 5 5 5 4 3 4 5 3 3 5 5 4 6 5 3 2 4 4 3 2 0 -1 -3 -6 -7 -8 -8 -8 -8 -8 -8 -8 -7 -8